sat.trackr.live / text

‹ back to catalog

STARLINK-37244

NORAD 68529 · 2026-068X

PAYLOAD ACTIVE UNKNOWN

§ Identity

Operator
Country
US
Launch date
2026-03-30
Launch site
AFETR
Launch vehicle
Mass (kg)
RCS (m²)

Purposes: comms

External: N2YO · Heavens-Above · Gunter

§ Orbital elements

Epoch: 2026-09-19T20:06:50.762592Z

Period
93.85 min
Inclination
53.1612°
Eccentricity
0.0000327
Mean motion
15.34406719 rev/d
Perigee alt
462.5 km
Apogee alt
462.9 km
Semi-major
6,840.8 km
B*
4.8253e-4
RAAN
302.9504°
Arg perigee
66.1334°
Mean anomaly
293.9703°
Rev number
2,673

§ Raw data

STARLINK-372441 68529U 26068X   26262.83808753  .00015965  00000+0  48253-3 0  99922 68529  53.1612 302.9504 0000327  66.1334 293.9703 15.34406719 26739

JSON: /api/v1/satellites/68529 · /tle

For live sub-satellite position, see the globe view (requires WebGL).

§ Visibility from observer

Set your observer location to see the next 7 days of passes ≥ 10°. The values pass through the URL so the page stays shareable.

No JS? Fill the form by hand. The geolocation button needs JavaScript.